Find Starlink 1482

NORAD ID: 45773 Int'l Des: 2020-038 Owner: SPXS Country: US Constellation: starlink operational
LEOCIRCULAR

現在のビュー

3D地球を読み込み中...

About Starlink 1482

Starlink 1482 (NORAD 45773) is a starlink constellation satellite (v1.0) launched Jun 13, 2020 by SPXS of US. It operates in LEO, CIRCULAR orbit with a mass of 260.00 kg.

次回通過

Passes for default location (London). Set your location on the main map for personalized predictions.

高度履歴

Loading altitude history...

軌道要素

1 45773U 20038AV 26235.83514739 .00050428 00000-0 10845-2 0 9996
2 45773 53.1539 126.2367 0001604 126.5470 233.5684 15.44180935342557
Epoch: Aug 23, 2026 • Age: 15 hours

現在のステータス

高度 432.9 km
遠地点 / 近地点 N/A
速度 7.65 km/s
衛星直下点 9.70°N, 162.08°E
打ち上げ日 Jun 13, 2020
運用期間 6.1 years
タイプ internet

技術仕様

分類 Payload
質量 260.00 kg
乾燥質量 248.00 kg
総質量 260.00 kg
長さ 0.20 m
直径 2.80 m
スパン 9.00 m
形状 Box + pan
製造者 SPXS
バスタイプ Starlink
フェーズステータス In Orbit
所有者/国 SPXS/US

Most Searched